Flag for Germany Weather past 2 weeks in Waldkraiburg, Bavaria, Germany

Now
41 °F

Light rain. Partly sunny.


Feels Like: 33 °F
Forecast: 36 / 42 °F
Wind: 15 mph from West

Location: Erding Airport

Current Time: Oct 22, 2014 at 10:18:29 AM

Latest Report: Oct 22, 2014 at 9:20 AM


Visibility: N/A

Pressure: 29.92 "Hg

Humidity: 87%

Dew point: 37 °F

Location of WaldkraiburgLocation

Historic Weather in Waldkraiburg — Graph

°F

Waldkraiburg temperature yesterday

Maximum temperature yesterday: 63 °F (at 5:20 PM)
Minimum temperature yesterday: 46 °F (at 10:20 PM)
Average temperature yesterday: 55 °F

Past Weeks' High & Low Weather Summary

 TemperatureHumidityPressure
High75 °F (Oct 9, 2:20 PM)100% (Oct 7, 8:20 AM)30.27 "Hg (Oct 7, 8:20 AM)
Low41 °F (Oct 19, 7:20 AM)44% (Oct 9, 2:20 PM)29.65 "Hg (Oct 21, 8:20 PM)
Average57 °F88%29.96 "Hg
* Reported Oct 7 8:20 AM — Oct 22 8:20 AM, Waldkraiburg, Weather by CustomWeather, © 2014

Note: Actual official high and low records may vary slightly from our data, if they occured in-between our weather recording intervals... More about our weather records

Advertising

Waldkraiburg weather history for previous 24 hours

 ConditionsComfort  
Time TempWeatherWind HumidityBarometerVisibility
8:20 AM
Oct 22
43 °FLight rain. Passing clouds.12 mph87%29.92 "HgN/A
7:20 AM43 °FPassing clouds.9 mph81%29.92 "HgN/A
6:20 AM43 °FQuite cool.10 mph87%29.89 "Hg2 mi
5:20 AM43 °FQuite cool.13 mph81%29.89 "Hg2 mi
4:20 AM43 °FQuite cool.8 mph81%29.86 "Hg3 mi
3:20 AM43 °FQuite cool.16 mph81%29.89 "Hg3 mi
2:20 AM45 °FQuite cool.13 mph81%29.92 "Hg2 mi
1:20 AM46 °FCool.12 mph76%29.92 "Hg2 mi
12:20 AM46 °FCool.17 mph82%29.86 "Hg3 mi
11:20 PM
Oct 21
46 °FCool.18 mph82%29.86 "Hg1 mi
10:20 PM46 °FCool.13 mph87%29.77 "Hg2 mi
9:20 PM59 °FCool.18 mph72%29.65 "Hg1 mi
8:20 PM59 °FCool.7 mph72%29.65 "Hg2 mi
7:20 PM61 °FCool.9 mph68%29.71 "Hg2 mi
6:20 PM61 °FCool.10 mph72%29.71 "Hg2 mi
5:20 PM63 °FMild.8 mph68%29.74 "Hg3 mi
12:20 PM55 °FCool.5 mph94%29.92 "Hg2 mi
11:20 AM55 °FCool.7 mph94%29.95 "Hg1 mi
10:20 AM55 °FCool.7 mph94%29.95 "Hg3 mi
Weather by CustomWeather, © 2014

See weather overviewHow to use our weather pages